Tracking 30995 objects as of 5-Jul-2025
HD Live streaming from Space Station
objects crossing your sky now

FENGYUN 1C DEB

Track FENGYUN 1C DEB now!
10-day predictions


NORAD ID: 30360
Int'l Code: 1999-025ABX
Perigee: 794.3 km
Apogee: 836.1 km
Inclination: 98.8 °
Period: 101.0 minutes
Semi major axis: 7186 km
RCS: 0.0134 m2 (small)
Launch date: May 10, 1999
Source: People's Republic of China (PRC)
Launch site: Taiyaun Space Center, China (TSC)

Note: This is SATELLITE DEBRIS
Your satellite tracking list
COSMOS 480
Track 1 satellite(s)




NASA's NSSDC Master Catalog

Two Line Element Set (TLE):
1 30360U 99025ABX 25185.13747561  .00001910  00000-0  82917-3 0  9993
2 30360  98.7751 254.6848 0029045 252.1769 174.2743 14.25134985951229
Source of the keplerian elements: AFSPC